{"data":{"norad_id":27607,"intl_designator":"2002-058C","name":"SAUDISAT 1C (SO-50)","alt_names":[],"object_type":"PAYLOAD","status":"ACTIVE","operator":null,"country":"SAUD","launch_date":"2002-12-20","launch_site_code":"TYMSC","launch_vehicle":null,"mission":null,"orbit_class":"UNKNOWN","rcs_meters":0.0905,"size_class":null,"mass_kg":null,"dimensions":null,"purposes":["comms","tech_demo"],"wikipedia_slug":null,"has_3d_model":false,"image_url":null,"decayed_at":null,"tle_current":{"epoch":"2026-05-25T03:51:04.061088Z","epoch_age_seconds":64687,"freshness":"FRESH","line1":"1 27607U 02058C   26145.16046367  .00000764  00000+0  10770-3 0  9992","line2":"2 27607  64.5514 200.2269 0075587 266.6862  92.5595 14.82990548261046","mean_motion":14.82990548,"eccentricity":0.0075587,"inclination_deg":64.5514,"raan_deg":200.2269,"arg_perigee_deg":266.6862,"mean_anomaly_deg":92.5595,"bstar":0.0001077,"rev_number":26104,"period_min":97.101090896501,"perigee_km":567.00423026796,"apogee_km":672.79635926788,"semimajor_km":6998.0372947679,"source":"CELESTRAK","updated_at":"2026-05-25T13:38:25.045010Z"}}}